Location: Unspecified
(0.0000°N, 0.0000°E)
Time: 10:32:48
(UTC+00:00)

FAST 1 (USA 222) - Pass Details

Date: 03 June 2024
Orbit: 613 x 632 km, 72.0° (Epoch: 13 June)

Event Time Altitude Azimuth Distance (km) Brightness Sun altitude
Rises 19:28:33 0° 319° (NW) 2,886 ? -20.8°
Reaches altitude 10° 19:31:17 10° 302° (WNW) 1,987 ? -21.4°
Maximum altitude 19:34:32 20° 255° (WSW) 1,454 ? -22.1°
Drops below altitude 10° 19:37:49 10° 208° (SSW) 2,002 ? -22.9°
Enters shadow 19:39:29 - 196° (SSW) 2,524 ? -23.2°
